This is the latest recevied weather packets stored in our database for station/object AI5KP-13. If no packets are shown the sender has not sent any weather packets the latest 1 day(s).
| Time | Temp. | Humidity | Pressure | Rain* | Wind** | Luminosity | Snow |
|---|---|---|---|---|---|---|---|
| 1836274772 | 18.33° C | 88% | 1017.3 hPa | 0 mm | 0 m/s | 0 W/m² | - |
| 1836274470 | 18.89° C | 87% | 1017.3 hPa | 0 mm | 0 m/s | 0 W/m² | - |
| 1836274324 | 18.33° C | 88% | 1017.5 hPa | 0 mm | 0 m/s | 0 W/m² | - |
| 1836274169 | 18.89° C | 86% | 1017.4 hPa | 0 mm | 0 m/s | 0 W/m² | - |
| 1836273869 | 19.44° C | 85% | 1017.4 hPa | 0 mm | 0 m/s | 0 W/m² | - |
| 1778052213 | 8.89° C | 92% | 1011.1 hPa | 0 mm | 1.34 m/s, 14° | 0 W/m² | - |
| 1778051911 | 8.89° C | 92% | 1011 hPa | 0 mm | 2.24 m/s, 31° | 0 W/m² | - |
| 1778051609 | 8.89° C | 91% | 1011.3 hPa | 0 mm | 1.79 m/s, 44° | 0 W/m² | - |
| 1778051305 | 8.89° C | 91% | 1011.5 hPa | 0 mm | 1.34 m/s, 58° | 0 W/m² | - |
| 1778051002 | 8.89° C | 91% | 1011.4 hPa | 0 mm | 3.13 m/s, 39° | 0 W/m² | - |
| 1778050700 | 8.89° C | 91% | 1011.4 hPa | 0 mm | 1.79 m/s, 29° | 0 W/m² | - |
| 1778050397 | 8.89° C | 91% | 1011.3 hPa | 0 mm | 1.34 m/s, 38° | 0 W/m² | - |
| 1778050094 | 8.89° C | 91% | 1011.3 hPa | 0 mm | 1.34 m/s, 99° | 0 W/m² | - |
| 1778049789 | 8.89° C | 91% | 1011.3 hPa | 0 mm | 0 m/s | 0 W/m² | - |
| 1778049487 | 8.89° C | 91% | 1010.8 hPa | 0 mm | 1.34 m/s, 46° | 0 W/m² | - |
| 1778049184 | 8.89° C | 92% | 1010.8 hPa | 0 mm | 4.02 m/s, 11° | 0 W/m² | - |
| 1778048883 | 8.89° C | 92% | 1011 hPa | 0 mm | 1.79 m/s, 29° | 0 W/m² | - |
| 1778048580 | 8.89° C | 92% | 1011.3 hPa | 0 mm | 0.45 m/s, 56° | 0 W/m² | - |
| 1778048275 | 8.89° C | 92% | 1012.1 hPa | 0 mm | 1.34 m/s, 20° | 0 W/m² | - |
| 1778047973 | 8.89° C | 93% | 1011.5 hPa | 0 mm | 0.45 m/s, 113° | 0 W/m² | - |
| 1778047671 | 8.89° C | 93% | 1011.1 hPa | 0 mm | 0.89 m/s, 32° | 0 W/m² | - |
| 1778047368 | 8.89° C | 93% | 1011.4 hPa | 0 mm | 2.68 m/s, 52° | 0 W/m² | - |
| 1778047065 | 8.89° C | 93% | 1011.4 hPa | 0 mm | 0.89 m/s, 21° | 0 W/m² | - |
| 1778046761 | 8.89° C | 93% | 1011.5 hPa | 0 mm | 1.79 m/s, 50° | 0 W/m² | - |
| 1778046459 | 8.89° C | 94% | 1011.5 hPa | 0 mm | 1.34 m/s, 31° | 0 W/m² | - |
* Rain latest hour (hover to see other rain measurements)
** Current wind speed in m/s (hover to see current wind gust speed)